Location: ????
(30.1475°N, 31.1342°E)
Time: 09:45:39
(UTC+00:00)

COSMOS 2251 DEB - Pass Details

Date: 04 June 2024
Orbit: 760 x 785 km, 73.9° (Epoch: 19 June)

Event Time Altitude Azimuth Distance (km) Brightness Sun altitude
Rises 00:58:36 0° 355° (N) 3,247 ? -21.2°
Reaches altitude 10° 01:01:13 10° 5° (N) 2,313 ? -20.8°
Maximum altitude 01:05:56 33° 69° (ENE) 1,257 ? -20.0°
Drops below altitude 10° 01:10:37 10° 133° (SE) 2,290 ? -19.3°
Sets 01:13:11 0° 143° (SE) 3,209 ? -18.9°
